EDT,Max TemperatureF,Mean TemperatureF,Min TemperatureF,Max Dew PointF,MeanDew PointF,Min DewpointF,Max Humidity, Mean Humidity, Min Humidity, Max Sea Level PressureIn, Mean Sea Level PressureIn, Min Sea Level PressureIn, Max VisibilityMiles, Mean VisibilityMiles, Min VisibilityMiles, Max Wind SpeedMPH, Mean Wind SpeedMPH, Max Gust SpeedMPH,PrecipitationIn, CloudCover, Events, WindDirDegrees
2013-6-1,78,72,66,69,65,63,93,81,69,29.89,29.84,29.76,10,9,2,25,12,32,0.17,5,Rain-Thunderstorm,207
2013-6-2,75,68,60,63,59,53,87,72,57,29.96,29.88,29.80,10,10,10,17,11,21,0.00,5,,277
2013-6-3,70,60,50,53,47,43,80,62,44,30.08,30.02,29.96,10,10,7,14,7,16,0.00,3,,360
2013-6-4,79,70,60,49,43,39,64,45,25,30.13,30.08,30.05,10,10,10,13,8,18,0.00,0,,96
2013-6-5,84,71,57,59,52,48,73,55,37,30.06,29.96,29.84,10,10,10,12,4,28,0.00,2,,88
2013-6-6,78,69,60,64,58,52,90,73,56,29.84,29.80,29.77,10,7,0,12,5,35,0.63,5,Rain,44
2013-6-7,77,69,60,62,57,55,93,72,50,29.86,29.82,29.80,10,7,2,15,7,17,T,4,,32
2013-6-8,80,70,60,62,57,55,84,66,48,30.00,29.94,29.86,10,7,3,12,6,22,0.00,4,,110
2013-6-9,84,74,64,68,62,56,87,64,40,30.02,29.94,29.83,10,8,3,17,9,23,T,6,Rain,155
2013-6-10,80,74,67,65,63,58,87,68,48,29.85,29.80,29.77,10,9,6,21,10,26,T,6,Rain,211
2013-6-11,87,76,65,65,62,59,87,65,43,29.95,29.90,29.86,10,10,10,16,7,21,T,1,Rain,234
2013-6-12,93,82,71,73,70,65,90,70,49,29.91,29.82,29.67,10,10,5,22,9,30,0.00,0,,208
2013-6-13,85,74,62,70,64,52,90,66,42,29.96,29.73,29.60,10,9,1,32,14,40,0.45,5,Rain-Thunderstorm,323
2013-6-14,83,70,57,60,56,52,87,64,40,30.05,30.00,29.92,10,10,10,14,6,25,0.00,1,,2
2013-6-15,86,74,61,63,60,57,90,65,40,30.09,30.01,29.92,10,10,9,17,6,23,0.00,0,,196
2013-6-16,80,74,68,68,65,60,90,75,60,30.00,29.96,29.91,10,10,3,26,9,35,0.13,4,Rain-Thunderstorm,230
2013-6-17,89,78,66,72,67,62,93,68,43,29.98,29.93,29.85,10,5,0,15,4,18,0.05,5,Fog-Rain-Thunderstorm,195
2013-6-18,87,77,67,66,63,59,84,64,43,29.97,29.89,29.85,10,10,10,14,6,17,T,3,Thunderstorm,315
2013-6-19,83,72,61,61,57,55,84,62,40,30.09,30.04,29.98,10,10,9,12,5,17,0.00,1,,80
2013-6-20,88,75,62,61,58,53,90,61,31,30.17,30.13,30.10,10,10,10,12,4,20,0.00,1,,137
2013-6-21,89,76,63,65,60,58,84,59,34,30.18,30.13,30.04,10,10,10,14,6,18,0.00,0,,175
2013-6-22,89,80,70,72,68,64,90,73,55,30.12,30.09,30.05,10,8,1,23,7,30,0.50,3,Rain-Thunderstorm,206
2013-6-23,89,78,67,70,67,64,93,74,55,30.12,30.07,30.04,10,6,2,23,7,30,0.01,1,Rain-Thunderstorm,174
2013-6-24,85,78,70,71,69,66,90,76,61,30.12,30.06,30.00,10,8,4,15,9,20,T,1,,189
2013-6-25,92,81,70,73,70,65,90,71,52,30.01,29.94,29.86,10,8,4,21,9,29,0.06,1,Rain-Thunderstorm,214
2013-6-26,85,77,69,72,69,65,90,78,65,29.94,29.82,29.75,10,10,2,17,9,22,0.28,5,Rain-Thunderstorm,188
2013-6-27,90,80,70,72,68,66,97,74,50,29.80,29.75,29.69,10,7,0,18,10,24,0.00,5,Fog-Thunderstorm,261
2013-6-28,87,77,66,68,63,58,87,64,40,29.69,29.64,29.59,10,8,1,33,9,44,0.47,3,Rain-Thunderstorm,283
2013-6-29,77,70,63,66,64,61,93,79,64,29.65,29.60,29.57,10,10,5,8,4,,T,4,Rain-Thunderstorm,285
2013-6-30,76,70,64,66,64,61,93,79,64,29.85,29.75,29.65,10,8,1,15,6,21,1.73,7,Rain-Thunderstorm,26